Location: Unspecified
(0.0000°N, 0.0000°E)
Time: 18:45:49
(UTC+00:00)

Tiros 1 despin weight - Pass Details

Date: 21 November 2019
Orbit: 594 x 642 km, 48.2° (Epoch: 05 December)

Event Time Altitude Azimuth Distance (km) Brightness Sun altitude
Rises 21:41:09 0° 303° (WNW) 2,893 - -53.5°
Reaches altitude 10° 21:43:39 10° 293° (WNW) 1,997 - -54.0°
Maximum altitude 21:47:43 31° 230° (SW) 1,113 - -54.8°
Drops below altitude 10° 21:51:50 10° 168° (SSE) 2,023 - -55.7°
Sets 21:54:24 0° 158° (SSE) 2,937 - -56.2°
